Tracking 31027 objects as of 19-Jul-2025
HD Live streaming from Space Station
objects crossing your sky now

STARLINK-11110

Track STARLINK-11110 now!
10-day predictions
STARLINK-11110 is classified as:


NORAD ID: 59762
Int'l Code: 2024-091K
Perigee: 366.1 km
Apogee: 367.6 km
Inclination: 53.2 °
Period: 91.7 minutes
Semi major axis: 6737 km
RCS: Unknown
Launch date: May 14, 2024
Source: United States (US)
Launch site: AIR FORCE WESTERN TEST RANGE (AFWTR)
Your satellite tracking list
FREGAT DEB
Track 1 satellite(s)




NASA's NSSDC Master Catalog

Two Line Element Set (TLE):
1 59762U 24091K   25199.50033293 -.00001180  00000-0 -48801-5 0  9994
2 59762  53.1586 280.5536 0001108  95.7915 264.3230 15.69706558 68730
Source of the keplerian elements: AFSPC